Regional Weather Roundup
Issued by NWS

Home | Current Version | Previous Version | Graphics & Text | Print | Product List | Glossary On
Versions: 1 2 3 4 5 6 7 8 9 10 11 12 13 14 15 16 17 18 19 20 21 22 23 24 25 26 27 28 29 30 31 32 33 34 35 36 37 38 39 40 41 42 43 44 45 46 47 48 49 50
000
ASUS43 KDTX 262001
RWRMI
MICHIGAN HOURLY REGIONAL WEATHER ROUNDUP
NATIONAL WEATHER SERVICE DETROIT/PONTIAC MI
400 PM EDT WED JUL 26 2017

NOTE: "FAIR" INDICATES FEW OR NO CLOUDS BELOW 12,000 FEET WITH NO
SIGNIFICANT WEATHER AND/OR OBSTRUCTION TO VISIBILITY.

MIZ047>049-052>055-059>063-066>070-074>076-081>083-262100-
SOUTHEAST LOWER MICHIGAN

CITY           SKY/WX    TMP DP  RH WIND       PRES   REMARKS
ADRIAN         CLOUDY    79  61  53 W6        30.09F
ALMA           PTSUNNY   79  63  58 S9        30.05F
ANN ARBOR      CLOUDY    80  64  58 S8        30.08S
BAD AXE        LGT RAIN  73  64  73 W9G16     30.09R
CARO           RAIN      76  64  67 W6        30.07F
DETROIT CITY   CLOUDY    79  64  60 SW10      30.08R
DETROIT        CLOUDY    81  63  54 W10       30.09R
FLINT          PTSUNNY   81  64  56 W9        30.08S
GROSSE ILE     CLOUDY    76  65  67 S8        30.07F
HILLSDALE      CLOUDY    77  61  57 S9        30.09F
HOWELL         MOSUNNY   79  61  53 W7        30.08F

CITY           SKY/WX    TMP DP  RH WIND       PRES   REMARKS
JACKSON        CLOUDY    80  59  48 S9        30.08F
LAMBERTVILLE   CLOUDY    78  63  60 SW6       30.07F
LANSING        PTSUNNY   80  61  52 CALM      30.07F
LAPEER         FAIR      80  61  52 W9        30.10R
MASON          PTSUNNY   79  63  59 SW3       30.08S
MONROE         CLOUDY    80  62  55 CALM      30.07F
MT. CLEMENS    CLOUDY    80  65  59 VRB5      30.06S
PONTIAC        CLOUDY    79  63  57 W12       30.07F
PORT HOPE        N/A     73  64  73 W9G17     30.07R
PORT HURON     CLOUDY    77  63  61 SW8       30.08S
TRI CITIES     CLOUDY    73  69  87 SW5       30.06F
MIDLAND        FAIR      72  68  88 SW5       30.05F
TROY           CLOUDY    80  60  50 SW9       30.09F
SAGINAW HB     LGT RAIN  70  66  88 S5        30.05F
$$
MIZ043>046-050>051-056>058-064>065-071>073-077>080-262100-
SOUTHWEST LOWER MICHIGAN

CITY           SKY/WX    TMP DP  RH WIND       PRES   REMARKS
BATTLE CREEK   MOSUNNY   82  63  52 SW10      30.07F
BENTON HARBOR  CLOUDY    83  63  50 S5        30.04F
BIG RAPIDS     LGT RAIN  70  67  92 S6        30.05F
COLDWATER      MOSUNNY   80  60  50 S6        30.08S
FREMONT        FAIR      79  66  64 S8        30.02F
HOLLAND        CLOUDY    81  65  58 SW9       30.05F
GRAND RAPIDS   CLOUDY    82  64  54 SW8       30.05F
IONIA          FAIR      80  61  52 SW7       30.06F
KALAMAZOO      SUNNY     82  60  47 VRB3      30.06F
LUDINGTON      RAIN      71  69  94 S7        30.02F
MARSHALL       PTSUNNY   80  63  55 SW6       30.07F
MOUNT PLEASANT CLOUDY    74  66  77 W5        30.05S
MUSKEGON       CLOUDY    77  65  66 S16       30.03F
SOUTH HAVEN    MOSUNNY   83  66  56 NW3       30.05F
$$
MIZ016>042-262100-
NORTHERN LOWER MICHIGAN

CITY           SKY/WX    TMP DP  RH WIND       PRES   REMARKS
ALPENA         LGT RAIN  69  68  96 S10       29.95F
BEAVER ISLAND  CLOUDY    72  69  90 SW12G20   29.95R
BELLAIRE       CLOUDY    69  66  90 S6        29.96F
CADILLAC       CLOUDY    71  67  87 S9        30.03F
CHARLEVOIX     LGT RAIN  70  70 100 S8        29.97F
FRANKFORT      LGT RAIN  71  69  96 S8G18     29.98F
GAYLORD        LGT RAIN  69  66  90 S10       29.98S
GRAYLING       LGT RAIN  69  66  90 SW5       30.01F
HARBOR SPRINGS RAIN      69  67  95 W3        29.94R
HOUGHTON LAKE  CLOUDY    70  67  90 S12       30.03F
MANISTEE       PTSUNNY   69  68  96 S6        29.99F
OSCODA         DRIZZLE   70  67  89 S3        30.02F
PELLSTON       LGT RAIN  70  68  93 SW6       29.93S
ROGERS CITY    DRIZZLE   68  66  91 S6        29.91F
TRAVERSE CITY  CLOUDY    71  67  87 VRB7      29.96F
$$
MIZ007>008-015-262100-
EASTERN UPPER MICHIGAN

CITY           SKY/WX    TMP DP  RH WIND       PRES   REMARKS
KINROSS        CLOUDY    69  67  93 SW6       29.93R
MACKINAC ISLAN CLOUDY    67  67 100 W6        29.93R
NEWBERRY       CLOUDY    73  70  93 W6        29.93R
S. S. MARIE    CLOUDY    73  67  81 W6        29.90F
MUNISING         N/A     72  65  78 CALM      29.92S
$$
MIZ004>006-011>014-085-262100-
CENTRAL UPPER MICHIGAN

CITY           SKY/WX    TMP DP  RH WIND       PRES   REMARKS
MANISTIQUE     CLOUDY    75  72  89 W5        29.93S
ESCANABA       CLOUDY    76  71  85 CALM      29.91F
MENOMINEE      CLOUDY    72  70  93 VRB3      29.96R
SAWYER-GWINN   PTSUNNY   75  63  64 NE10      29.94R
$$
MIZ001>003-009>011-084-262100-
WESTERN UPPER MICHIGAN

CITY           SKY/WX    TMP DP  RH WIND       PRES   REMARKS
IRON MOUNTAIN  CLOUDY    80  65  59 NW14      29.92F
HOUGHTON       SUNNY     77  59  53 W21       29.94S
COPPER HARBOR    N/A     75  54  47 N15G24    29.91R
IRONWOOD       SUNNY     77  60  55 NW12      29.98S
$$

ABBREVIATIONS USED IN REMARKS
   TC - TEMPERATURE IN CELSIUS
  WCI - WIND CHILL INDEX
   HX - HEAT INDEX
  VSB - VISIBILITY




USA.gov is the U.S. government's official web portal to all federal, state and local government web resources and services.